Location: Little Baddow
(51.7333°N, 0.5667°E)
Time: 14:20:58
(UTC+00:00)

Cosmos 2016 Rocket - Visible Passes

Search period start: 14 February 2026 00:00
Search period end: 24 February 2026 00:00
Orbit: 946 x 1000 km, 83.0° (Epoch: 13 February)

Date Brightness Start Highest point End Pass type
(mag) Time Alt. Az. Time Alt. Az. Time Alt. Az.
14 Feb 6.7 05:08:23 10° ESE 05:12:31 19° ENE 05:16:39 10° NE visible
14 Feb 4.2 17:40:17 10° NNW 17:46:32 80° W 17:52:51 10° S visible
14 Feb 6.9 19:27:13 10° NW 19:30:53 16° WNW 19:34:34 10° WSW visible
15 Feb 5.9 05:31:25 10° SE 05:36:40 31° E 05:41:57 10° NNE visible
15 Feb 5.1 18:05:01 10° NNW 18:11:01 50° W 18:17:03 10° SSW visible
16 Feb 5.0 05:55:07 10° SSE 06:00:57 51° E 06:06:53 10° NNE visible
16 Feb 6.0 18:29:55 10° NNW 18:35:19 31° W 18:40:45 10° SW visible
17 Feb 6.9 04:37:33 10° ESE 04:41:05 16° ENE 04:44:39 10° NE visible
17 Feb 4.1 06:19:19 10° S 06:25:25 82° E 06:31:37 10° NNE visible
17 Feb 6.8 18:55:12 10° NW 18:59:28 20° WNW 19:03:46 10° WSW visible
18 Feb 6.2 05:00:15 10° SE 05:05:10 26° E 05:10:09 10° NNE visible
18 Feb 7.2 19:21:32 10° NW 19:23:28 11° WNW 19:25:25 10° W visible
19 Feb 5.3 05:23:44 10° SSE 05:29:26 43° E 05:35:12 10° NNE visible
19 Feb 5.8 17:58:10 10° NNW 18:03:51 37° W 18:09:32 10° SSW visible
20 Feb 7.0 04:06:55 10° ESE 04:09:42 13° ENE 04:12:28 10° NE visible
20 Feb 4.3 05:47:46 10° S 05:53:50 70° E 05:59:59 10° NNE visible
20 Feb 6.6 18:23:17 10° NNW 18:28:03 23° W 18:32:50 10° SW visible
21 Feb 6.4 04:29:10 10° SE 04:33:43 22° E 04:38:19 10° NNE visible
21 Feb 3.9 06:12:17 10° SSW 06:18:23 75° WNW 06:24:37 10° N visible
21 Feb 7.0 18:49:03 10° NW 18:52:07 14° WNW 18:55:11 10° WSW visible
22 Feb 5.6 04:52:26 10° SSE 04:57:55 36° E 05:03:29 10° NNE visible
23 Feb 7.1 03:36:45 10° E 03:38:18 11° ENE 03:39:54 10° ENE visible
23 Feb 4.6 05:16:17 10° S 05:22:16 59° E 05:28:21 10° NNE visible
